カタログに戻る

COSMOS 586

運用中軍事PO
NORAD 6828·PAYLOAD·🇷🇺 Russia

打ち上げ Sep 14, 1973 から Plesetsk Cosmodrome

Loading…

次のパス (今後24時間)

TLE

最新Source: Space-Track

元期: Sep 14, 2026, 13:26 UTC

1 06828U 73065A   26257.55982896  .00000033  00000-0  18273-4 0  9990
2 06828  82.9370  96.9275 0026628 314.0439  63.2678 13.75382914659185

AllMySatでCOSMOS 586をリアルタイム追跡

Download on the App Store